EW4210 Weather Reports


Display with metric or nautical units.
time (UTC)temp
F
wind
direction
speed
MPH
gust
MPH
rain 1hr
in
rain 24hr
in
rain mn
in
humidity
%
barometer
mb
20260831003049 85 104 0.0 2.0 0.00 0.00 0.00 53 1013.8
20260831001522 87 120 0.0 3.0 0.00 0.00 0.00 51 1013.7
20260831000011 88 109 0.0 3.0 0.00 0.00 0.00 49 1013.7
20260830234553 88 108 1.0 2.0 0.00 0.00 0.00 48 1014.0
20260830233032 89 83 0.0 4.0 0.00 0.00 0.00 47 1013.9
20260830231515 90 69 2.0 6.0 0.00 0.00 0.00 43 1014.0
20260830230103 90 72 2.0 6.0 0.00 0.00 0.00 43 1013.9
20260830230007 90 92 1.0 6.0 0.00 0.00 0.00 43 1014.0
20260830224551 91 120 3.0 9.0 0.00 0.00 0.00 44 1013.8
20260830223026 91 102 0.0 8.0 0.00 0.00 0.00 44 1013.8
20260830221523 92 123 1.0 8.0 0.00 0.00 0.00 43 1013.9
20260830220052 92 126 2.0 7.0 0.00 0.00 0.00 44 1013.9
20260830214537 92 71 3.0 8.0 0.00 0.00 0.00 44 1014.0
20260830213023 92 105 3.0 8.0 0.00 0.00 0.00 45 1014.0
20260830211504 93 69 2.0 9.0 0.00 0.00 0.00 45 1014.2
20260830210045 93 193 3.0 7.0 0.00 0.00 0.00 42 1014.2
20260830204532 93 199 1.0 9.0 0.00 0.00 0.00 42 1014.5
20260830203004 94 32 1.0 7.0 0.00 0.00 0.00 39 1014.6
20260830201552 94 70 0.0 3.0 0.00 0.00 0.00 41 1014.8
20260830200030 93 64 2.0 6.0 0.00 0.00 0.00 39 1015.0
20260830194609 93 188 3.0 7.0 0.00 0.00 0.00 43 1015.0
20260830193043 93 128 0.0 8.0 0.00 0.00 0.00 41 1015.1
20260830191532 94 172 1.0 4.0 0.00 0.00 0.00 38 1015.4
20260830190008 93 182 2.0 7.0 0.00 0.00 0.00 42 1015.5
20260830184548 93 92 1.0 3.0 0.00 0.00 0.00 45 1015.5
20260830183028 92 101 1.0 4.0 0.00 0.00 0.00 43 1015.8
20260830181510 92 42 1.0 4.0 0.00 0.00 0.00 45 1016.0
20260830180056 92 86 1.0 6.0 0.00 0.00 0.00 45 1016.1
20260830174530 91 246 2.0 8.0 0.00 0.00 0.00 47 1016.3
20260830173016 91 145 1.0 4.0 0.00 0.00 0.00 50 1016.5
20260830171549 91 171 2.0 9.0 0.00 0.00 0.00 51 1016.8
20260830170035 91 25 1.0 4.0 0.00 0.00 0.00 49 1016.7
20260830164533 90 74 1.0 8.0 0.00 0.00 0.00 52 1016.9
20260830163102 89 199 1.0 4.0 0.00 0.00 0.00 52 1016.9
20260830161525 88 101 0.0 4.0 0.00 0.00 0.00 55 1017.0
20260830160007 87 96 1.0 4.0 0.00 0.00 0.00 58 1017.1
20260830154546 86 263 1.0 3.0 0.00 0.00 0.00 55 1017.1
20260830153023 86 105 0.0 2.0 0.00 0.00 0.00 59 1017.1
20260830151505 84 161 0.0 3.0 0.00 0.00 0.00 58 1017.2
20260830150042 83 198 0.0 3.0 0.00 0.00 0.00 61 1017.0
20260830144521 82 100 0.0 3.0 0.00 0.00 0.00 61 1017.0
20260830143053 80 213 0.0 2.0 0.00 0.00 0.00 68 1017.1
20260830141534 78 34 0.0 2.0 0.00 0.00 0.00 70 1017.2
20260830140014 76 112 1.0 3.0 0.00 0.00 0.00 72 1017.3
20260830134547 75 87 1.0 2.0 0.00 0.00 0.00 72 1017.3
20260830133029 72 87 0.0 2.0 0.00 0.00 0.00 80 1017.4
20260830131507 71 87 0.0 0.0 0.00 0.00 0.00 84 1017.1
20260830130043 68 87 0.0 2.0 0.00 0.00 0.00 86 1017.3
20260830124522 66 87 0.0 0.0 0.00 0.00 0.00 90 1017.2
20260830123007 65 87 0.0 0.0 0.00 0.00 0.00 92 1017.1
20260830121542 65 87 0.0 0.0 0.00 0.00 0.00 91 1016.9
20260830120029 65 87 0.0 0.0 0.00 0.00 0.00 91 1016.8
20260830114513 65 87 0.0 0.0 0.00 0.00 0.00 91 1016.7
20260830113043 65 87 0.0 0.0 0.00 0.00 0.00 91 1016.4
20260830111518 66 87 0.0 0.0 0.00 0.00 0.00 91 1016.3
20260830110057 66 87 0.0 0.0 0.00 0.00 0.00 92 1016.3
20260830104540 66 87 0.0 0.0 0.00 0.00 0.00 91 1016.3
20260830103025 66 87 0.0 0.0 0.00 0.00 0.00 90 1016.2
20260830101558 66 87 0.0 0.0 0.00 0.00 0.00 89 1016.0
20260830100058 66 87 0.0 0.0 0.00 0.00 0.00 88 1015.8
20260830094527 66 87 0.0 0.0 0.00 0.00 0.00 88 1015.8
20260830093010 66 87 0.0 0.0 0.00 0.00 0.00 88 1015.8
20260830091546 66 87 0.0 0.0 0.00 0.00 0.00 87 1015.7
20260830090031 67 87 0.0 0.0 0.00 0.00 0.00 85 1015.8
20260830084512 68 87 0.0 0.0 0.00 0.00 0.00 83 1015.8
20260830083050 67 87 0.0 0.0 0.00 0.00 0.00 84 1016.0
20260830081530 67 87 0.0 0.0 0.00 0.00 0.00 83 1016.0
20260830080016 68 87 0.0 0.0 0.00 0.00 0.00 83 1016.0
20260830074559 68 87 0.0 0.0 0.00 0.00 0.00 83 1016.1
20260830073035 69 87 0.0 0.0 0.00 0.00 0.00 83 1016.1
20260830071516 69 87 0.0 0.0 0.00 0.00 0.00 82 1016.1
20260830070050 70 87 0.0 0.0 0.00 0.00 0.00 80 1016.1
20260830064530 71 87 0.0 0.0 0.00 0.00 0.00 79 1016.1
20260830063012 71 87 0.0 3.0 0.00 0.00 0.00 74 1016.0
20260830061554 70 119 0.0 1.0 0.00 0.00 0.00 79 1016.1
20260830060040 70 92 0.0 3.0 0.00 0.00 0.00 79 1016.1
20260830054517 69 117 0.0 0.0 0.00 0.00 0.00 80 1016.0
20260830053003 70 117 0.0 0.0 0.00 0.00 0.00 80 1016.1
20260830051544 71 117 0.0 0.0 0.00 0.00 0.00 78 1016.0
20260830050026 71 117 0.0 0.0 0.00 0.00 0.00 76 1016.0
20260830044506 72 117 0.0 0.0 0.00 0.00 0.00 75 1016.1
20260830043050 73 117 0.0 1.0 0.00 0.00 0.00 73 1016.1
20260830041530 74 117 0.0 1.0 0.00 0.00 0.00 70 1016.1
20260830040009 75 116 0.0 1.0 0.00 0.00 0.00 69 1016.3
20260830034552 77 117 0.0 1.0 0.00 0.00 0.00 66 1016.4
20260830033041 78 117 0.0 1.0 0.00 0.00 0.00 59 1016.3
20260830031522 78 97 1.0 3.0 0.00 0.00 0.00 61 1016.3
20260830030009 78 110 0.0 0.0 0.00 0.00 0.00 62 1016.4
20260830024554 78 116 0.0 2.0 0.00 0.00 0.00 63 1016.1
20260830023032 79 106 0.0 2.0 0.00 0.00 0.00 62 1016.1
20260830021515 79 111 0.0 2.0 0.00 0.00 0.00 62 1015.9
20260830020054 81 111 0.0 3.0 0.00 0.00 0.00 59 1015.7
20260830014541 81 106 0.0 3.0 0.00 0.00 0.00 57 1015.3
20260830013025 82 104 0.0 3.0 0.00 0.00 0.00 57 1015.2
20260830011515 82 92 0.0 2.0 0.00 0.00 0.00 56 1015.2
20260830010108 83 85 1.0 3.0 0.00 0.00 0.00 57 1015.2
20260830010005 83 99 1.0 3.0 0.00 0.00 0.00 57 1015.1
20260830004543 83 120 0.0 2.0 0.00 0.00 0.00 58 1015.2